Terug naar catalogus

TIANFU GAOFEN 2

ActiefWetenschapSSO
NORAD 60750·PAYLOAD·🇨🇳 China
Deze satellietnaam is nog niet bevestigd door officiële bronnen.

Gelanceerd Aug 29, 2024 vanaf Yellow Sea Launch Area

Loading…

Volgende Passages (komende 24 uur)

TLE

VersSource: Space-Track

Epoch: Sep 14, 2026, 15:37 UTC

1 60750U 24153F   26257.65126037  .00011825  00000-0  43457-3 0  9998
2 60750  97.6834  36.7521 0004102 300.4504  59.6330 15.28065354113453

Volg TIANFU GAOFEN 2 in realtime met AllMySat

Download on the App Store